Location: Newark
(42.0700°N, 88.0492°W)
Time: 04:40:33
(UTC+00:00)

ISS - Visible Passes

Search period start: 23 September 2019 00:00
Search period end: 03 October 2019 00:00
Orbit: 411 x 421 km, 51.6° (Epoch: 23 September)

Date Brightness Start Highest point End Pass type
(mag) Time Alt. Az. Time Alt. Az. Time Alt. Az.
23 Sep -2.0 01:34:24 10° W 01:37:21 29° NNW 01:38:33 23° NNE visible
24 Sep -2.6 00:45:36 10° W 00:48:48 41° NNW 00:51:58 10° NE visible
24 Sep -0.7 02:23:55 10° NW 02:25:03 15° NNW 02:25:03 15° NNW visible
25 Sep -1.5 01:35:00 10° WNW 01:37:29 19° NNW 01:38:32 17° NNE visible
26 Sep -1.7 00:46:04 10° WNW 00:48:48 23° NNW 00:51:34 10° NE visible
26 Sep -0.5 02:24:18 10° NW 02:24:51 12° NNW 02:24:51 12° NNW visible
27 Sep -1.4 01:35:32 10° NW 01:37:41 16° N 01:38:13 15° N visible
28 Sep -1.4 00:46:38 10° NW 00:48:56 17° N 00:51:13 10° NE visible
28 Sep -0.4 02:24:10 10° NW 02:24:26 11° NNW 02:24:26 11° NNW visible
29 Sep -1.4 01:35:38 10° NW 01:37:43 16° N 01:37:43 16° N visible
30 Sep -1.4 00:46:57 10° NW 00:49:05 16° N 00:51:00 11° NE visible
30 Sep -0.3 02:23:43 10° NW 02:23:53 11° NW 02:23:53 11° NW visible
30 Sep -1.4 23:58:08 10° NW 00:00:18 16° N 00:02:27 10° NE visible
01 Oct -1.6 01:35:17 10° NW 01:37:10 20° N 01:37:10 20° N visible
02 Oct -1.7 00:46:47 10° NW 00:49:11 18° N 00:50:27 15° NE visible
02 Oct -0.3 02:23:11 10° NW 02:23:20 11° NW 02:23:20 11° NW visible
